Wind_Speed
31 32 31 30 29 28 27 26 26 25 25 24 24 24 23 24 24 24 25 25 25 25 26 27 28 29 30 31 32 33 34 35 36 38 39 41 43 44 46 47 48 49 49 50 51 51 51 50 50 50 51 52 52 51 50 49 48 47 46 45 45 45 44 43 44 46 46 46 46 46 45 44 45 45 44 44 44 44 44 44 44 44 44 44 45
30 30 30 29 27 26 26 25 25 24 23 23 23 23 23 24 24 25 25 26 26 27 29 30 31 32 33 34 35 36 37 39 40 41 42 43 45 47 48 49 49 50 50 51 51 51 51 51 50 50 50 50 49 47 46 45 44 44 43 43 43 43 42 41 42 44 45 45 46 46 45 44 44 45 45 45 45 45 45 45 45 45 45 45 45
29 29 28 27 26 25 24 24 23 23 23 23 23 24 24 25 25 25 26 27 28 29 31 32 33 34 36 37 38 39 40 41 42 44 45 46 47 48 49 49 49 49 50 50 51 51 51 51 50 48 47 46 45 44 43 42 42 42 42 42 42 42 42 41 41 43 43 44 45 46 46 45 44 43 44 44 45 45 45 45 45 45 45 46 46
27 27 26 26 25 24 23 23 22 23 23 23 24 24 25 25 26 27 27 28 30 31 32 34 35 36 37 39 40 41 42 43 44 46 47 47 48 48 48 48 48 49 49 49 50 50 50 49 48 45 44 43 43 42 41 41 41 41 41 42 42 42 42 41 41 42 43 43 45 46 45 46 46 44 44 44 43 44 45 45 45 46 46 46 46
25 25 25 24 23 22 22 22 22 22 23 23 24 24 25 26 26 28 29 30 32 33 35 36 37 39 39 40 41 42 43 44 45 45 46 46 47 46 47 47 48 48 48 47 47 47 47 46 44 43 42 41 41 41 41 41 41 41 42 42 43 43 43 43 42 42 42 43 45 46 46 47 47 46 46 46 44 44 45 45 45 45 46 46 47
24 23 23 22 22 22 22 22 22 22 23 23 24 24 25 26 28 29 31 33 34 36 37 39 40 42 43 44 45 46 46 46 47 46 46 46 46 46 46 46 46 45 45 45 45 45 44 43 42 42 41 40 40 40 41 41 41 41 42 43 43 44 44 45 44 42 43 44 45 45 46 48 48 48 49 49 47 45 45 45 45 45 45 46 47
23 22 22 21 22 22 22 22 22 23 23 23 24 25 26 28 29 31 33 35 37 39 40 41 43 44 45 46 47 48 48 48 48 48 48 48 47 46 46 45 45 44 43 42 43 43 42 42 41 41 40 40 39 40 40 40 40 40 41 42 43 43 45 46 45 44 44 45 45 46 47 48 49 49 50 51 52 49 46 45 45 45 46 46 47
22 21 20 21 21 21 21 22 22 22 23 23 24 26 27 30 32 34 36 38 39 41 42 43 44 45 45 46 47 47 48 48 48 48 48 48 47 47 46 45 44 43 42 41 41 41 40 40 40 40 40 40 39 39 40 40 40 40 40 41 42 43 44 45 46 46 46 46 46 47 48 48 49 51 51 51 54 54 51 47 47 47 47 47 47
21 20 20 19 20 20 20 21 21 22 23 24 26 27 29 32 34 36 38 40 41 42 43 43 44 45 46 46 47 47 47 48 48 47 47 46 46 45 44 43 42 41 40 40 40 40 39 39 39 40 40 40 40 40 40 41 41 41 41 41 42 42 43 45 46 46 47 47 48 48 49 49 50 51 52 52 53 55 55 52 49 49 49 48 47
21 21 20 19 19 19 20 20 21 22 24 25 28 30 32 35 37 39 41 41 42 43 43 44 45 45 46 47 47 47 47 47 47 46 46 45 45 44 43 42 41 40 39 39 40 40 40 39 39 40 40 40 40 41 42 42 42 43 43 43 43 43 44 45 46 47 48 48 49 49 50 50 51 52 53 54 54 56 58 56 53 52 53 51 49
22 21 21 20 20 19 19 20 22 23 26 28 31 34 36 39 41 42 43 43 43 43 44 44 45 45 46 47 47 47 47 47 46 46 45 45 44 43 42 41 41 40 39 39 40 40 40 41 41 41 41 41 42 42 43 43 44 44 44 45 45 45 46 46 47 48 49 49 50 50 51 51 52 53 53 54 56 57 59 59 57 54 55 55 53
23 22 21 20 19 20 20 22 24 27 30 33 36 38 40 42 44 45 45 44 44 44 45 45 45 46 46 47 47 47 47 46 46 46 45 44 44 43 42 41 41 40 40 40 40 40 41 41 42 42 42 43 43 44 44 45 46 46 47 47 47 47 48 48 49 49 50 51 51 52 52 53 54 55 55 56 57 58 60 61 61 59 58 57 56
22 21 20 19 20 21 23 26 29 32 35 38 41 43 44 46 46 46 46 46 46 46 47 46 46 46 46 46 45 45 45 44 44 44 44 44 44 44 43 43 42 42 41 41 41 41 42 42 42 43 43 44 44 45 46 46 47 48 49 49 49 50 50 50 51 51 52 52 53 54 54 55 56 56 57 58 59 60 61 63 62 62 62 60 58
21 19 19 20 22 25 28 32 36 39 42 43 45 46 47 47 47 48 48 48 48 48 48 47 46 45 45 44 43 43 43 43 43 44 44 44 44 44 44 44 44 44 44 44 44 44 44 44 44 44 44 45 46 46 47 47 48 49 50 51 51 52 52 53 54 54 54 54 55 56 57 57 58 58 59 60 60 61 63 64 64 64 64 64 62
18 18 21 24 28 31 36 40 44 45 46 47 48 49 49 49 50 50 50 49 49 48 47 46 44 43 43 42 42 42 42 42 42 43 43 44 44 44 45 45 46 46 46 46 46 46 46 46 46 46 47 47 47 48 48 49 50 50 51 52 53 53 54 55 56 57 57 57 57 58 59 60 60 60 61 61 62 63 64 64 65 66 67 67 67
19 23 27 32 37 41 45 48 49 49 49 50 51 52 52 52 51 51 51 50 49 47 46 44 42 41 41 41 41 41 41 41 42 42 43 43 44 45 45 46 47 47 47 48 48 48 48 48 48 48 49 49 49 50 50 51 51 52 53 53 54 55 55 56 57 58 59 60 60 61 62 62 62 62 63 63 63 63 64 65 65 66 67 68 69
27 32 38 43 46 49 50 50 50 50 52 53 54 54 54 54 53 52 50 49 47 45 44 42 41 40 40 40 40 41 41 42 42 42 43 44 45 45 46 47 47 48 49 49 49 50 50 50 50 50 51 51 51 52 52 53 53 54 55 55 56 56 57 58 58 59 60 61 63 63 64 65 64 64 65 65 65 65 65 65 66 66 66 67 69
38 44 48 50 51 50 50 50 50 52 53 54 55 55 54 54 53 52 50 48 45 43 42 41 41 41 41 41 41 41 42 42 43 43 44 45 45 46 47 47 48 49 49 50 51 51 51 52 52 52 53 53 53 54 54 55 55 56 57 57 58 59 59 60 60 61 61 62 64 65 66 67 66 66 66 66 67 67 67 67 67 67 66 67 69
46 49 50 51 51 50 51 51 52 53 54 55 54 53 53 52 50 49 47 46 44 43 42 42 42 42 42 42 42 42 43 43 43 44 45 45 46 46 47 48 49 49 50 51 52 52 53 53 53 54 54 54 55 55 56 56 57 58 58 59 60 61 61 62 62 63 63 64 65 65 66 67 68 68 67 67 67 67 68 68 68 67 67 68 68
48 49 50 51 51 51 52 53 54 55 56 55 54 52 51 50 48 47 45 44 43 43 43 43 43 43 43 43 43 43 43 44 44 45 46 46 47 48 49 49 50 51 51 52 53 53 54 54 54 55 55 55 56 56 57 57 58 59 59 60 61 62 63 63 63 64 65 65 66 66 67 67 68 69 69 68 68 68 67 68 68 68 68 68 68
48 49 50 51 51 52 54 55 56 56 56 55 53 51 49 47 46 45 44 43 43 43 43 42 42 43 43 43 43 43 44 45 45 46 47 48 49 50 50 51 52 52 53 53 54 54 54 55 55 55 56 56 56 57 57 58 58 59 59 60 61 61 63 63 64 64 65 66 67 67 68 67 68 69 69 69 69 68 68 68 68 67 68 68 68
48 49 50 51 52 54 55 56 56 55 53 51 49 47 46 45 44 43 42 42 41 41 41 42 42 42 43 43 44 44 45 46 46 47 48 49 49 50 51 51 52 52 53 54 54 54 55 55 55 56 56 56 56 57 57 58 58 59 59 60 60 61 62 62 63 64 64 65 66 67 68 67 67 68 68 68 68 68 68 68 68 67 67 67 67
49 50 51 52 53 54 55 54 53 51 49 47 45 44 42 41 41 40 40 40 40 41 41 42 42 43 44 44 45 46 47 47 48 48 49 49 50 50 51 52 52 53 53 53 54 54 55 55 55 55 56 56 57 57 57 58 58 59 59 59 59 60 60 61 62 62 63 64 65 66 66 66 66 67 67 67 67 67 67 68 68 67 67 66 65
50 50 52 53 53 52 51 50 48 47 45 43 41 40 39 39 39 39 39 39 40 41 41 42 43 44 45 45 46 47 48 49 49 49 50 50 50 51 51 52 52 53 53 53 54 54 54 55 55 55 56 56 57 57 57 57 57 58 58 58 58 58 59 59 60 60 61 62 63 64 64 64 64 65 65 65 65 65 65 66 67 66 66 66 65
49 50 51 51 50 50 48 47 45 44 42 40 40 39 39 39 39 39 39 40 40 41 42 43 43 45 46 47 48 48 48 49 49 50 50 50 51 51 52 52 53 53 53 53 53 53 54 54 54 55 55 56 56 56 56 56 56 56 56 56 56 56 56 57 57 57 58 59 60 61 61 61 62 63 63 63 63 63 64 64 65 65 65 65 64
49 49 49 49 48 47 46 45 43 42 41 40 39 39 39 39 39 39 40 40 41 42 43 44 45 46 47 48 48 49 49 50 50 50 51 51 51 52 52 52 53 53 53 53 53 53 53 54 54 54 55 55 55 54 54 54 54 54 54 54 54 54 54 54 55 55 55 56 57 58 58 59 59 60 60 60 60 61 61 62 63 63 63 63 63
49 49 49 48 47 45 44 44 43 42 41 40 39 38 38 38 39 39 40 41 42 43 44 45 46 47 48 49 49 49 50 50 50 51 51 52 52 52 52 53 53 53 53 53 53 53 53 53 53 53 53 53 53 53 52 52 52 52 52 52 52 53 53 53 53 53 53 54 55 56 56 56 57 57 58 57 57 58 59 60 61 61 61 62 62
49 48 47 46 45 44 43 42 41 41 40 39 38 38 38 39 39 40 41 42 43 44 45 46 47 48 49 49 49 50 50 51 51 51 52 52 52 52 52 52 52 53 53 52 53 53 52 52 52 52 52 52 51 51 50 51 50 50 50 50 50 51 51 51 51 51 52 52 54 55 55 55 55 55 55 55 55 56 57 58 58 59 59 60 61
47 46 45 44 44 42 42 41 41 40 39 38 38 38 39 39 40 41 42 43 45 46 47 48 48 49 49 49 50 50 50 51 51 51 51 51 52 52 52 52 52 52 52 52 52 52 52 51 51 50 50 49 49 49 49 49 49 49 49 49 49 50 50 51 51 51 50 50 50 52 53 53 54 54 54 54 54 54 55 56 56 56 57 58 58
46 45 44 43 42 41 40 40 40 39 38 38 38 39 40 40 41 42 43 45 46 47 48 48 49 49 50 50 50 50 50 51 51 51 51 51 51 51 51 51 51 51 52 51 51 51 50 50 50 49 48 48 47 47 46 46 46 46 46 47 48 48 48 49 50 50 50 50 49 49 50 50 50 51 52 52 52 52 52 53 54 54 54 55 56
45 44 43 42 41 40 40 39 39 38 38 38 38 39 40 41 42 43 44 46 47 47 48 48 49 49 50 50 50 50 50 50 50 51 51 50 50 51 51 51 51 51 51 50 50 49 48 48 48 48 47 46 46 44 44 44 42 41 40 41 42 44 45 45 47 48 48 49 49 49 48 48 48 48 48 49 49 49 50 50 51 50 51 51 52
43 42 42 41 40 39 39 39 38 38 38 39 39 40 41 42 43 44 45 46 47 47 48 47 48 48 49 49 50 50 50 50 50 50 50 50 50 50 50 50 50 50 50 49 48 47 46 46 46 46 45 45 43 42 42 41 39 37 35 35 37 40 41 43 44 45 46 46 47 48 47 46 45 45 45 45 46 46 46 47 47 47 46 46 46
42 42 41 40 38 38 38 38 38 38 39 40 40 41 42 43 44 45 46 47 47 47 47 47 47 48 49 49 50 50 50 49 49 49 49 49 49 49 49 50 50 49 49 48 47 46 45 44 44 44 43 42 41 39 38 37 35 32 32 32 34 36 39 41 42 44 44 44 44 45 45 45 44 43 43 42 43 43 42 42 43 43 43 43 42
42 42 40 38 37 36 36 37 38 39 39 40 40 41 42 43 44 45 46 46 46 46 46 47 47 48 49 49 49 49 49 49 49 49 48 48 49 49 49 49 49 49 48 47 46 44 43 42 42 42 41 40 38 36 35 33 31 29 29 29 31 34 38 41 42 42 43 43 41 41 42 42 41 41 41 40 40 39 37 35 36 38 39 40 39
42 41 38 36 36 36 37 38 39 39 40 40 41 42 42 43 44 45 45 46 46 46 46 47 47 48 48 49 49 49 49 49 49 48 48 48 48 48 48 48 48 48 47 46 45 43 42 41 40 40 39 38 35 32 31 30 28 27 27 27 29 33 38 42 42 41 41 40 40 39 39 39 39 38 37 37 35 32 30 30 32 34 36 36 36
41 39 37 36 36 37 38 39 40 41 41 41 42 43 43 44 45 45 45 45 46 46 46 46 47 47 48 48 49 49 49 48 48 48 47 47 47 47 47 48 48 47 46 44 43 42 41 40 38 38 37 36 32 29 28 27 26 25 25 26 29 34 39 42 42 41 39 38 38 38 37 37 36 35 33 31 29 26 26 27 29 31 32 33 34
39 38 37 37 37 38 40 40 41 41 42 43 43 43 44 44 45 45 45 45 45 45 45 46 46 47 47 47 48 48 48 48 47 47 46 46 46 46 47 47 47 46 45 43 41 40 39 38 37 36 35 34 31 27 24 24 25 26 25 25 30 36 41 41 41 39 37 35 35 35 35 35 33 32 30 26 23 22 24 26 27 27 28 30 32
38 37 37 37 38 39 39 40 41 42 42 43 43 43 44 44 44 45 44 44 44 44 45 45 45 46 46 46 46 47 47 47 46 46 46 45 46 46 46 47 47 46 44 42 41 40 38 37 36 34 32 32 30 25 22 22 25 25 22 24 30 36 39 39 39 38 34 32 32 32 32 32 31 28 25 21 18 18 22 26 27 26 26 28 28
37 37 37 38 38 39 39 40 41 42 43 43 43 43 44 44 44 44 44 44 44 44 44 45 45 45 45 45 46 46 46 46 46 46 45 45 46 46 46 46 46 45 44 42 40 40 38 36 34 32 30 30 28 24 20 21 24 22 19 23 31 34 36 37 38 37 33 29 29 29 28 27 27 24 20 16 14 16 20 25 26 27 27 26 23
37 37 38 38 38 39 39 40 41 43 43 44 44 44 43 44 44 44 43 43 43 43 44 44 44 44 44 44 45 45 45 45 45 45 45 45 46 46 45 45 44 43 42 40 39 39 38 35 33 30 28 27 26 23 19 20 22 20 16 21 28 32 34 37 39 38 34 29 28 28 27 24 22 21 18 15 14 15 19 23 25 26 26 22 18
37 38 39 39 38 38 39 40 41 43 43 44 44 44 43 44 44 44 43 43 43 43 43 43 43 43 42 43 43 43 44 44 44 44 44 44 45 45 44 44 43 42 41 39 38 38 37 35 32 29 28 26 25 23 20 19 20 17 15 18 25 29 33 37 39 38 34 29 27 28 26 22 18 17 16 16 14 14 18 23 25 24 21 18 17
37 38 39 39 39 39 39 40 41 43 43 44 44 44 43 43 43 43 42 42 41 41 41 41 41 41 41 41 42 42 42 43 43 43 43 43 43 43 42 42 42 41 40 38 38 38 37 34 31 28 26 25 23 22 21 21 19 15 14 16 21 25 29 33 35 35 32 28 26 27 25 19 14 13 14 16 16 15 18 22 23 21 19 18 19
38 38 39 40 39 39 39 40 41 42 43 44 44 44 43 43 42 42 42 41 41 40 40 40 40 39 40 40 40 40 41 41 42 42 43 43 43 42 40 40 40 40 39 38 37 38 37 35 31 27 24 23 22 21 21 22 20 16 14 15 18 21 24 28 31 33 31 27 25 24 20 13 9 8 11 15 17 19 20 20 19 18 17 18 20
39 39 40 40 40 40 40 40 41 42 43 43 44 44 43 42 42 42 41 41 40 39 39 39 39 39 39 39 39 40 40 40 41 41 42 42 42 41 40 39 39 39 38 37 37 38 37 35 32 28 24 21 21 20 21 23 23 19 16 15 17 18 20 23 25 28 29 27 23 19 14 9 7 8 9 11 15 19 22 21 19 18 18 19 21
39 39 40 40 40 40 40 40 40 41 42 42 43 44 44 42 42 42 41 40 40 39 39 38 38 38 38 39 39 39 39 40 40 41 41 41 41 41 39 38 38 37 37 37 37 38 37 35 33 30 26 21 18 18 19 22 24 23 20 17 15 15 16 20 23 25 25 24 21 16 13 10 10 10 10 11 13 17 20 21 21 21 20 21 22
40 40 40 39 40 40 40 40 40 40 41 41 42 43 44 43 42 41 41 40 39 39 38 38 38 38 38 39 39 39 39 39 39 40 40 40 40 40 39 38 38 36 36 36 37 37 37 35 33 31 27 23 19 16 15 18 23 25 25 22 17 14 14 17 21 22 20 19 19 16 14 11 10 11 12 12 12 14 17 19 21 22 22 23 23
41 40 40 40 40 41 41 41 40 40 41 41 41 42 43 43 42 41 41 40 39 39 38 38 39 39 39 39 39 39 39 39 38 39 39 38 38 39 38 38 37 36 35 35 36 37 37 36 34 33 30 27 23 20 19 19 20 23 26 25 20 16 15 16 19 21 19 18 19 20 18 15 12 11 11 11 11 13 15 18 21 23 24 25 26
41 42 41 41 41 41 42 41 41 41 41 40 41 42 43 43 42 41 41 40 39 39 38 38 38 39 39 39 39 39 39 39 39 38 38 37 37 37 37 37 36 36 36 36 36 37 38 38 36 35 34 32 28 25 25 24 23 23 23 22 20 19 18 17 20 22 21 20 21 22 20 17 13 10 8 9 10 11 13 16 19 22 24 25 26
43 43 42 42 42 42 42 42 42 41 41 40 40 41 42 43 42 41 41 40 40 39 38 38 38 39 39 39 39 39 39 39 39 38 37 36 35 36 37 36 35 34 34 35 36 37 38 38 37 36 37 37 33 30 28 27 27 28 27 24 23 23 21 19 20 22 21 19 19 19 17 14 12 11 8 5 6 8 9 11 15 19 22 23 24
43 43 43 42 42 42 42 42 42 42 41 40 40 41 42 42 41 41 41 40 40 39 38 38 38 39 39 39 39 39 39 39 38 38 38 35 32 32 33 35 36 33 31 31 33 34 34 36 36 34 35 36 35 32 30 28 29 31 30 27 26 26 24 21 20 21 20 18 16 15 14 13 11 11 10 6 2 4 6 7 10 14 19 22 24
43 44 43 42 42 42 42 42 42 42 41 40 40 41 42 42 41 40 40 40 40 40 39 38 38 39 38 39 39 39 39 39 38 38 38 37 34 29 27 29 32 33 30 28 29 29 30 31 33 32 32 32 32 30 28 27 29 31 30 27 25 24 23 20 18 19 18 17 15 13 12 11 10 8 9 8 6 4 3 4 6 9 13 19 22
Wind_Direction
243 241 240 240 240 242 243 243 243 241 238 237 235 235 236 237 239 242 244 248 251 256 260 263 265 268 271 273 276 278 280 282 284 287 289 291 293 294 294 294 294 294 293 292 292 292 292 292 293 293 293 293 292 291 290 289 289 288 288 287 287 286 286 286 285 284 283 282 281 279 278 276 276 275 274 273 272 272 271 271 272 272 271 270 269
239 237 236 236 237 238 239 238 237 234 232 231 232 233 235 237 240 244 247 252 257 261 264 267 270 272 274 276 277 280 282 283 286 288 290 292 293 293 293 293 293 293 292 291 291 292 292 293 293 292 292 291 290 289 288 288 288 288 288 288 288 287 288 288 287 286 285 284 284 282 280 277 276 276 275 274 273 273 272 272 271 271 271 271 270
235 234 234 235 235 234 233 232 230 229 228 229 232 234 237 240 244 249 254 258 263 267 270 273 276 278 279 281 282 284 286 287 289 291 292 293 293 293 293 293 293 293 292 292 292 293 292 292 291 290 290 289 288 287 287 287 288 288 288 287 287 287 288 288 287 287 287 287 285 284 283 281 278 276 274 274 274 274 273 273 272 271 271 271 270
236 234 233 233 232 230 228 226 226 227 229 231 234 238 242 246 252 257 262 267 271 274 277 279 280 282 284 286 288 290 292 293 294 294 295 295 294 294 294 294 294 293 293 292 292 291 290 289 289 288 288 287 286 286 285 285 286 286 286 286 286 286 287 287 286 286 287 288 286 286 285 284 282 279 276 274 273 273 273 273 273 273 272 272 271
235 233 232 229 227 225 223 224 226 229 232 235 240 245 251 257 262 268 272 276 279 280 282 284 285 286 287 289 291 293 294 294 294 294 294 294 294 293 293 292 292 291 290 289 288 287 286 286 286 285 284 284 283 283 283 283 283 284 284 285 285 286 286 286 286 286 286 286 286 287 287 286 285 284 281 278 275 274 273 273 273 273 273 272 271
227 228 228 226 225 224 224 227 231 235 239 244 250 256 263 269 273 277 281 283 285 287 288 289 289 290 290 291 291 291 291 291 291 291 291 291 291 291 290 290 289 288 286 284 283 283 282 282 282 282 281 281 281 281 282 282 282 283 283 284 285 285 286 286 286 286 285 285 285 286 286 286 286 285 284 282 280 276 274 273 273 272 272 271 271
225 226 226 227 227 228 230 233 238 243 249 255 262 269 275 280 283 286 288 289 291 292 293 293 293 293 293 293 293 293 293 293 293 294 294 294 293 293 291 290 288 286 284 283 282 281 281 281 281 281 281 281 281 281 282 282 282 283 283 283 284 284 285 285 286 285 284 284 284 284 284 284 284 284 283 283 283 280 277 275 273 272 271 271 270
227 228 229 230 231 233 237 241 247 253 260 267 274 281 285 289 292 293 294 296 297 298 298 298 298 297 297 297 298 298 298 298 298 297 297 296 295 294 292 290 288 285 284 282 281 280 280 281 281 281 281 282 282 282 283 283 283 282 282 282 282 283 283 284 284 284 284 284 283 283 282 282 282 282 282 282 282 282 280 277 274 272 270 269 270
228 230 231 234 237 241 246 251 258 265 272 279 285 290 295 298 300 301 303 304 304 304 304 303 303 302 302 302 302 302 302 301 300 298 297 296 294 293 291 289 287 285 284 282 282 281 280 280 280 281 281 282 283 283 283 283 283 283 282 282 281 281 281 282 282 282 283 283 282 282 281 281 281 281 281 281 281 281 281 279 276 274 272 269 269
229 231 234 238 242 247 254 262 270 277 283 290 296 301 304 307 309 310 310 310 309 308 308 307 307 307 306 306 305 304 302 300 299 298 296 295 293 292 290 289 287 286 284 283 282 282 282 281 281 281 282 282 282 283 283 283 283 283 282 282 281 281 280 280 280 281 280 280 280 280 279 279 279 279 279 280 279 279 279 279 276 275 273 271 269
230 234 237 241 247 254 265 274 282 290 296 302 306 309 312 313 314 315 314 313 311 311 311 310 310 309 308 307 305 303 301 300 298 297 295 293 291 289 288 287 286 285 284 284 283 283 283 283 283 283 283 283 283 282 282 282 282 282 281 281 281 280 280 279 279 279 279 279 278 278 278 277 277 277 277 277 277 277 278 278 276 274 273 272 271
234 238 242 248 257 268 279 288 296 303 307 310 312 314 316 317 317 317 316 315 314 313 313 312 311 310 308 306 304 302 301 299 298 296 293 291 290 288 287 286 285 285 285 285 284 284 284 284 284 284 283 283 283 282 282 282 281 281 281 280 279 279 278 278 278 277 277 277 277 276 276 276 276 276 275 275 275 275 275 275 275 274 272 271 270
239 245 252 262 273 284 293 300 306 310 313 315 316 318 319 319 319 318 317 317 316 315 314 313 311 309 307 305 303 301 300 298 296 295 293 292 291 290 289 288 287 287 287 286 286 285 284 283 282 282 282 282 281 281 281 280 280 280 280 280 279 278 277 276 276 276 275 275 275 275 274 274 274 274 274 274 273 273 273 274 274 274 273 271 269
248 258 271 282 291 298 304 309 312 315 318 319 320 321 321 321 320 319 318 318 316 315 314 312 310 308 306 304 302 300 298 297 295 294 294 293 293 292 292 292 291 290 290 289 289 288 287 286 285 284 284 283 282 281 281 280 280 279 279 279 278 278 278 277 277 276 275 274 273 273 273 273 272 272 272 272 272 272 273 273 273 273 273 271 268
265 281 293 301 305 309 313 316 319 321 322 323 323 324 323 322 321 319 318 317 316 314 312 311 309 307 305 302 300 299 297 296 295 295 295 295 295 295 295 295 294 293 293 292 291 291 290 290 289 289 288 287 286 285 284 283 282 280 280 279 278 278 277 277 277 276 276 275 274 273 272 271 271 270 270 270 271 271 272 272 273 273 273 271 270
291 301 308 313 316 319 320 322 324 324 324 325 326 325 323 321 320 319 317 316 314 313 310 308 306 303 301 299 298 297 296 296 296 296 296 296 296 296 296 296 296 296 295 295 294 294 293 292 291 291 290 289 288 287 286 285 284 283 282 281 279 278 277 276 275 275 275 275 274 274 273 272 271 270 269 269 268 269 270 270 271 272 272 272 272
311 316 319 321 323 324 324 324 324 324 324 325 325 323 321 320 318 317 316 314 312 310 307 305 303 301 299 298 298 297 297 298 298 298 299 299 299 299 299 298 298 298 297 297 296 295 295 294 293 292 291 291 290 289 288 287 286 284 284 282 281 280 279 277 276 275 274 273 273 272 272 272 271 270 270 269 268 268 268 268 269 269 270 271 271
322 323 324 324 324 324 323 323 323 323 324 323 322 321 319 318 317 315 313 312 310 307 305 304 302 301 300 300 300 300 300 300 300 300 300 300 300 300 300 300 299 299 298 298 297 296 296 295 295 294 293 292 291 290 289 288 287 286 285 284 282 281 280 279 277 276 275 273 272 272 271 271 271 270 270 269 268 268 267 267 267 267 268 268 269
323 323 323 322 322 321 321 322 322 323 322 320 320 319 317 316 314 313 311 310 308 307 306 305 303 303 302 302 302 302 302 302 301 301 301 301 302 301 301 301 300 300 299 299 298 298 297 297 296 295 294 293 292 291 290 288 287 286 285 284 283 282 281 279 278 277 276 274 273 272 271 271 270 270 269 268 268 267 267 266 266 266 266 267 267
321 321 321 320 320 320 321 321 321 320 319 318 318 317 315 314 312 311 310 309 308 307 306 305 304 304 303 303 303 303 303 303 304 304 304 304 304 304 303 303 302 302 301 300 300 299 298 297 297 296 295 294 293 291 290 289 288 287 286 285 284 283 281 280 279 277 276 275 273 272 271 271 271 270 269 268 267 266 266 265 265 265 265 265 266
319 319 318 319 319 320 320 319 318 317 316 315 315 314 313 312 311 310 309 308 307 306 304 304 304 304 304 304 305 305 306 306 306 307 307 307 306 306 305 305 304 303 302 302 301 300 299 299 298 297 296 294 293 292 291 290 289 288 287 286 285 283 282 281 279 278 276 275 274 272 271 270 270 269 269 268 267 267 265 264 264 263 263 263 263
318 318 318 318 318 317 316 315 314 313 313 313 313 312 311 310 309 309 308 307 306 305 305 305 305 306 306 307 307 308 308 308 308 308 308 308 307 307 306 305 305 304 304 303 302 301 300 300 298 298 297 296 295 294 293 291 290 289 288 287 286 284 283 281 280 278 277 275 274 272 271 269 268 268 267 267 266 266 265 264 262 262 261 261 261
318 317 316 315 313 313 312 311 311 311 312 312 311 311 310 309 309 308 308 307 307 307 307 308 308 309 309 309 309 310 310 310 310 309 309 309 308 308 307 306 306 305 305 304 303 302 301 300 299 299 298 297 296 295 294 293 292 291 290 289 288 286 285 283 281 280 278 276 275 273 271 269 268 267 266 265 265 264 264 263 262 261 260 260 260
315 314 312 311 311 311 311 311 311 311 311 311 310 310 310 310 310 309 309 309 309 309 310 310 310 310 311 311 311 311 311 311 311 310 310 310 309 309 308 308 307 306 306 305 304 304 303 302 301 300 299 299 298 297 296 296 295 294 293 292 290 289 287 286 284 281 279 278 276 274 272 270 268 266 265 264 263 262 262 262 262 261 260 259 259
313 312 312 312 312 313 313 313 312 312 313 313 312 313 313 312 312 311 311 311 311 311 311 312 312 311 312 312 312 312 312 312 312 311 311 311 310 310 310 309 308 308 307 307 306 305 304 304 303 302 301 300 300 299 299 299 298 297 296 294 293 291 289 287 285 283 281 279 277 275 273 271 269 267 265 263 262 262 261 261 260 260 260 259 259
315 315 315 315 315 315 315 315 315 315 316 316 316 315 315 314 313 312 312 312 313 313 313 313 313 313 313 313 313 313 313 313 313 312 312 312 312 311 311 311 310 309 309 308 307 307 306 305 304 303 303 302 302 302 302 301 300 299 297 296 294 292 290 288 286 284 282 280 278 276 274 272 270 268 266 263 262 261 260 259 259 259 259 259 258
320 320 319 317 317 317 317 317 317 317 317 317 317 316 315 314 314 314 314 314 314 315 315 315 315 315 315 315 315 315 315 314 314 314 314 314 313 313 313 312 312 311 310 309 309 308 307 306 306 305 305 304 304 304 303 302 300 299 298 296 295 293 292 290 288 286 283 281 279 276 274 272 271 269 267 264 262 260 259 258 258 257 257 257 257
322 321 319 318 318 319 318 318 317 317 317 317 317 316 315 315 315 316 316 316 316 316 316 316 316 316 316 316 316 316 316 316 316 316 316 315 315 315 314 313 313 312 311 310 310 309 308 308 307 307 307 306 306 305 303 302 301 300 299 298 296 294 292 290 288 285 283 282 280 278 275 273 271 270 268 265 263 261 259 258 257 257 257 256 256
321 320 319 319 320 320 319 318 317 317 317 316 316 315 316 316 317 318 318 318 318 318 318 318 318 318 318 318 318 318 318 318 318 317 317 317 316 316 315 314 313 313 312 311 311 310 309 309 308 308 308 307 306 305 304 304 303 303 301 299 297 295 293 291 288 285 283 280 278 277 275 273 272 270 268 266 264 261 260 258 256 256 256 256 256
321 320 320 320 320 320 319 317 317 317 316 316 316 317 318 318 319 319 319 320 319 319 320 320 320 320 320 320 319 319 319 319 319 318 318 318 317 316 316 315 314 313 313 312 311 311 310 310 309 308 308 307 306 306 306 305 305 305 305 303 301 299 298 296 293 290 287 284 280 278 275 273 271 270 268 266 264 262 260 258 257 256 255 255 255
320 320 320 321 320 320 318 317 316 316 316 316 317 318 319 320 320 320 320 320 320 320 321 321 321 320 320 320 320 320 320 320 320 319 319 318 317 317 316 315 314 313 312 312 312 312 312 311 310 309 308 307 307 308 307 305 306 306 306 306 305 303 301 299 296 294 291 289 286 282 278 276 272 270 268 265 263 261 260 259 257 256 255 255 255
320 320 321 321 320 319 318 317 317 317 317 318 319 320 321 321 321 321 321 321 321 321 321 321 321 321 320 320 320 321 321 321 320 320 319 318 317 317 315 314 314 313 313 313 313 313 313 312 310 309 308 308 308 308 307 306 307 307 308 310 310 308 305 302 300 298 295 293 290 287 283 279 275 272 269 266 263 260 258 257 257 255 254 254 254
322 321 321 321 320 319 317 317 317 317 318 320 320 321 322 322 322 322 321 322 322 322 322 322 322 322 321 321 321 322 321 321 320 320 319 318 317 317 315 315 314 314 314 315 315 315 314 312 310 309 309 309 308 308 307 307 308 310 313 316 314 311 309 308 307 306 304 300 297 293 288 282 278 274 271 267 264 261 258 255 255 255 253 251 250
322 321 321 320 319 318 316 316 317 318 319 320 321 322 322 323 322 322 322 323 323 323 323 323 323 322 322 322 322 322 321 321 320 320 320 319 318 317 316 315 315 315 316 316 317 316 314 311 310 309 309 309 309 309 309 309 312 318 319 316 313 313 314 313 313 312 310 306 301 296 291 286 281 276 272 268 265 264 262 259 254 253 251 249 247
321 321 321 321 319 318 318 318 318 319 320 321 322 323 323 323 323 323 323 324 324 324 323 323 323 323 323 323 322 322 321 321 321 321 320 319 318 317 317 316 316 317 318 318 318 316 313 311 311 310 309 309 310 311 310 312 318 322 317 311 314 316 313 312 313 314 312 309 304 298 293 288 282 277 272 268 266 266 266 261 253 249 248 248 246
321 321 321 321 320 319 319 319 320 321 321 322 323 324 324 324 324 324 324 324 324 324 324 323 324 323 323 323 322 322 322 322 321 321 320 319 318 317 317 316 317 317 319 319 318 315 313 312 312 312 311 310 311 312 312 315 321 320 312 310 315 314 309 309 313 314 311 309 306 301 295 290 283 277 272 266 264 263 261 258 253 247 246 247 246
320 321 321 320 320 320 320 320 320 321 322 322 323 324 324 324 324 324 325 324 324 324 324 324 324 324 323 323 322 323 322 322 322 321 320 320 319 318 318 317 318 318 320 320 318 315 314 314 314 314 313 312 311 312 314 316 316 314 311 313 315 313 311 311 314 314 310 308 308 304 298 292 284 277 271 265 260 257 254 254 254 250 248 247 247
319 319 320 319 319 320 320 320 320 321 321 322 323 324 324 325 325 324 324 324 324 324 324 324 324 324 324 324 324 324 323 323 322 322 322 321 320 320 319 319 319 320 321 320 318 316 316 317 318 317 315 313 311 312 315 311 308 308 310 315 317 316 314 314 316 316 312 309 312 310 303 295 287 278 270 265 259 250 246 247 249 250 249 248 249
318 318 319 319 319 319 319 319 320 320 321 322 323 323 324 325 324 324 324 324 324 324 325 325 325 325 326 326 326 325 324 324 324 324 324 323 321 321 320 320 321 321 321 320 319 317 317 319 321 319 317 314 310 310 311 303 300 302 307 317 323 323 321 320 319 318 314 312 315 316 309 299 289 279 268 260 254 243 239 243 246 247 248 251 253
318 318 317 318 319 319 319 319 320 320 321 322 322 324 325 325 325 324 324 324 325 325 326 326 326 327 327 327 327 326 326 326 325 325 325 324 322 322 321 321 321 321 321 320 319 317 318 321 322 320 317 313 307 305 302 295 294 296 299 313 325 329 328 326 321 317 314 312 314 318 315 306 291 274 256 242 238 236 237 243 246 247 250 255 256
317 317 317 318 318 319 319 319 320 320 321 322 323 324 325 326 325 325 324 324 325 325 326 326 326 328 328 327 327 327 328 328 327 326 326 324 323 322 322 322 321 321 321 320 319 318 318 321 323 321 318 313 304 297 292 288 289 290 294 312 325 331 333 330 325 318 313 308 311 316 318 312 294 270 243 222 220 228 235 240 244 248 252 254 248
317 316 317 317 318 319 320 320 320 321 321 322 323 324 326 326 325 324 324 324 324 325 326 326 327 328 328 328 329 329 329 329 328 327 326 325 324 323 322 322 321 320 320 320 319 318 319 321 323 322 318 312 301 290 283 281 282 285 295 313 326 331 333 334 333 328 318 307 306 314 317 311 295 271 240 218 211 216 226 235 241 247 252 252 246
317 317 317 318 318 319 320 321 321 321 322 323 323 324 325 325 324 324 323 323 324 325 326 326 327 328 328 328 329 331 331 331 330 329 327 326 324 324 323 323 321 320 321 320 318 317 319 321 322 322 319 311 299 286 276 273 276 280 292 311 322 327 333 338 341 339 330 314 306 311 316 311 297 280 252 229 215 212 218 226 232 237 243 248 249
317 317 318 318 319 319 320 321 321 321 322 323 323 324 325 325 324 323 323 323 324 324 325 326 327 327 328 328 330 331 332 332 331 330 329 327 325 325 324 324 322 321 321 320 318 317 319 320 322 323 322 314 301 287 272 267 272 276 285 303 316 324 335 344 346 342 336 328 317 312 316 315 307 296 271 245 226 217 217 219 219 223 228 233 240
317 317 318 318 318 319 320 321 321 321 322 323 323 323 324 325 324 323 323 323 323 324 325 325 326 327 327 328 329 331 332 332 332 331 330 329 327 326 326 325 323 322 322 321 318 317 318 321 323 324 324 319 310 296 277 268 270 272 275 287 305 319 336 350 351 344 339 337 329 314 302 296 289 279 269 257 240 225 219 218 219 222 224 225 230
317 317 318 318 318 319 319 321 321 321 322 323 323 323 324 325 324 323 322 322 322 323 324 325 325 326 326 327 328 330 331 331 332 332 331 331 330 329 328 327 325 324 323 321 318 317 318 322 324 325 326 326 323 316 301 286 278 274 273 277 289 308 331 347 350 345 342 341 336 324 308 296 280 263 255 251 240 226 219 219 220 221 222 222 224
318 318 319 319 319 319 320 321 322 322 323 324 323 323 323 324 324 323 322 322 322 323 323 323 324 324 325 327 328 328 329 330 331 331 332 332 332 331 330 328 326 325 324 321 318 318 319 323 326 328 329 330 331 331 328 316 299 283 277 277 282 293 312 332 340 341 343 347 347 341 330 322 311 285 263 250 239 228 220 218 217 215 218 221 222
318 319 320 320 320 320 320 321 322 322 323 324 324 323 323 323 324 323 322 322 322 322 322 322 322 323 324 326 327 327 328 329 330 330 331 332 333 332 331 329 327 326 325 323 321 321 322 325 329 331 330 331 333 335 334 330 320 305 295 293 295 296 300 314 327 332 336 343 347 345 337 335 340 328 291 262 246 237 230 226 223 220 220 223 224
319 320 320 321 321 321 321 321 322 322 324 324 324 323 322 323 324 323 322 322 322 322 322 322 321 322 323 324 326 326 327 328 329 329 331 333 334 334 332 330 329 329 328 326 324 324 324 326 330 331 330 328 330 334 335 333 327 317 312 313 316 310 304 307 315 320 323 329 338 342 337 337 353 360 343 293 246 237 234 232 230 228 226 227 227
319 319 320 321 321 321 321 321 321 322 324 325 324 323 322 323 324 323 323 323 322 322 322 322 321 322 323 323 324 326 327 328 329 329 329 331 334 336 334 332 329 329 328 325 324 324 324 323 326 328 327 325 326 330 332 329 321 314 314 318 320 315 310 307 307 309 312 315 323 334 334 329 340 358 3 357 310 240 233 228 226 226 226 227 226
319 319 320 321 321 321 321 320 321 322 324 324 324 322 321 323 324 324 323 323 323 322 323 323 322 322 322 323 324 325 326 328 328 329 329 330 331 334 336 333 329 326 325 322 321 320 320 319 321 323 323 321 321 324 325 321 314 311 313 318 317 312 310 307 301 297 298 301 305 316 326 326 328 342 354 0 5 354 293 253 237 229 225 223 222
Height
3070 3070 3071 3071 3072 3072 3072 3072 3072 3072 3072 3072 3073 3073 3072 3072 3072 3072 3071 3071 3071 3070 3070 3069 3068 3068 3067 3066 3065 3064 3063 3062 3061 3059 3058 3056 3055 3053 3052 3050 3049 3047 3045 3044 3042 3040 3038 3036 3034 3033 3031 3029 3028 3028 3027 3025 3024 3023 3021 3020 3019 3019 3019 3019 3017 3016 3015 3016 3016 3017 3019 3019 3018 3019 3020 3020 3020 3020 3020 3021 3022 3022 3023 3023 3023
3068 3068 3069 3069 3070 3070 3070 3070 3070 3070 3070 3070 3070 3070 3070 3070 3070 3069 3069 3068 3068 3067 3066 3065 3064 3063 3062 3061 3060 3059 3058 3057 3056 3055 3053 3052 3050 3048 3047 3045 3043 3041 3040 3038 3035 3033 3031 3029 3027 3026 3024 3023 3022 3021 3020 3019 3018 3017 3015 3014 3013 3012 3012 3013 3011 3009 3008 3009 3008 3008 3011 3012 3012 3012 3012 3013 3013 3013 3014 3014 3015 3016 3016 3017 3017
3066 3067 3067 3068 3068 3068 3068 3068 3068 3068 3069 3069 3068 3068 3068 3067 3067 3067 3066 3065 3064 3063 3062 3061 3060 3059 3058 3057 3056 3055 3054 3052 3051 3049 3048 3046 3045 3043 3041 3039 3037 3035 3033 3030 3028 3025 3023 3022 3020 3019 3018 3016 3016 3015 3014 3013 3012 3011 3009 3008 3007 3006 3006 3006 3005 3003 3002 3002 3001 3000 3001 3003 3005 3006 3006 3006 3007 3007 3007 3007 3008 3009 3010 3010 3011
3065 3066 3066 3066 3066 3066 3066 3067 3067 3067 3067 3067 3066 3066 3065 3065 3064 3063 3062 3061 3060 3059 3058 3057 3056 3055 3053 3052 3051 3049 3048 3047 3045 3043 3042 3040 3038 3036 3034 3032 3030 3028 3025 3023 3021 3019 3017 3015 3014 3013 3012 3011 3009 3009 3008 3007 3006 3004 3003 3001 3000 2999 2999 3000 2999 2998 2997 2995 2994 2993 2993 2993 2995 2998 2999 2999 3001 3001 3001 3001 3001 3002 3003 3003 3004
3065 3065 3065 3065 3065 3065 3065 3065 3065 3065 3065 3064 3064 3063 3062 3062 3061 3059 3058 3057 3056 3055 3053 3052 3051 3050 3049 3048 3046 3045 3043 3042 3040 3038 3037 3035 3033 3031 3028 3026 3024 3022 3019 3017 3015 3013 3011 3010 3009 3007 3006 3005 3004 3002 3002 3001 3000 2998 2996 2995 2993 2992 2992 2992 2993 2993 2991 2990 2987 2986 2986 2986 2986 2988 2989 2990 2994 2995 2994 2995 2995 2996 2996 2996 2997
3064 3064 3064 3064 3064 3064 3064 3063 3063 3063 3062 3062 3061 3060 3059 3058 3057 3056 3054 3053 3051 3050 3049 3047 3046 3044 3043 3042 3041 3040 3038 3037 3035 3034 3032 3030 3028 3026 3023 3021 3018 3016 3014 3011 3009 3007 3006 3004 3003 3002 3000 2999 2998 2997 2995 2994 2994 2992 2991 2989 2987 2986 2985 2985 2986 2987 2985 2984 2983 2981 2980 2979 2978 2980 2980 2980 2984 2987 2988 2988 2989 2990 2989 2990 2990
3063 3063 3063 3063 3063 3063 3062 3061 3061 3060 3060 3059 3058 3057 3056 3054 3053 3052 3050 3048 3047 3045 3044 3042 3040 3039 3037 3036 3034 3033 3032 3030 3028 3026 3024 3022 3020 3018 3016 3014 3011 3009 3007 3005 3003 3001 3000 2998 2997 2995 2994 2993 2992 2990 2989 2988 2987 2987 2985 2983 2982 2981 2979 2977 2978 2979 2979 2978 2977 2976 2975 2973 2972 2972 2972 2971 2972 2976 2981 2982 2982 2983 2983 2983 2983
3062 3062 3062 3062 3061 3061 3060 3059 3059 3058 3057 3056 3055 3054 3052 3051 3049 3047 3046 3044 3042 3040 3038 3037 3035 3033 3032 3030 3028 3026 3024 3022 3020 3018 3016 3014 3012 3010 3009 3007 3004 3002 3001 2999 2996 2995 2994 2992 2990 2989 2988 2986 2985 2984 2983 2982 2981 2980 2979 2978 2976 2975 2973 2972 2971 2971 2971 2971 2971 2970 2969 2968 2967 2965 2965 2965 2963 2963 2969 2974 2975 2975 2976 2976 2977
3060 3060 3060 3060 3059 3059 3058 3057 3056 3055 3054 3053 3052 3050 3049 3047 3045 3043 3041 3040 3038 3036 3034 3032 3030 3028 3026 3024 3022 3019 3017 3015 3013 3011 3009 3007 3005 3003 3001 3000 2998 2996 2994 2992 2990 2989 2988 2986 2984 2983 2982 2980 2979 2977 2976 2975 2974 2973 2973 2972 2970 2969 2968 2966 2965 2964 2964 2964 2964 2963 2962 2962 2961 2959 2959 2958 2957 2955 2956 2962 2967 2967 2968 2970 2971
3059 3059 3058 3058 3058 3057 3056 3055 3054 3053 3051 3050 3048 3047 3045 3043 3041 3039 3037 3035 3033 3031 3028 3026 3024 3022 3019 3017 3015 3013 3011 3009 3006 3004 3002 3000 2999 2997 2995 2993 2992 2990 2989 2987 2985 2983 2981 2980 2978 2977 2975 2974 2972 2971 2970 2968 2967 2966 2966 2965 2964 2963 2962 2961 2959 2958 2958 2957 2957 2956 2955 2955 2954 2953 2952 2951 2951 2949 2947 2950 2956 2958 2959 2961 2963
3058 3057 3057 3056 3056 3055 3054 3053 3051 3050 3048 3046 3044 3043 3041 3039 3037 3034 3032 3030 3027 3025 3023 3020 3018 3015 3013 3011 3008 3006 3004 3002 3000 2998 2996 2994 2993 2991 2990 2988 2986 2984 2983 2981 2979 2977 2975 2973 2971 2970 2968 2967 2965 2964 2963 2962 2961 2960 2959 2958 2957 2956 2955 2954 2953 2952 2951 2950 2950 2949 2948 2948 2947 2946 2946 2945 2943 2942 2940 2940 2944 2948 2949 2951 2954
3057 3056 3055 3054 3054 3053 3051 3050 3048 3046 3044 3042 3040 3038 3036 3034 3031 3029 3026 3024 3021 3019 3017 3014 3012 3009 3007 3005 3002 3000 2997 2995 2993 2991 2990 2988 2986 2985 2983 2982 2980 2978 2976 2975 2973 2971 2969 2967 2965 2963 2962 2960 2959 2958 2956 2955 2954 2953 2952 2951 2950 2949 2948 2947 2946 2945 2944 2943 2942 2941 2941 2940 2939 2939 2939 2938 2936 2935 2933 2931 2933 2937 2939 2942 2945
3055 3055 3054 3053 3052 3050 3049 3047 3045 3042 3040 3038 3035 3033 3030 3028 3025 3022 3020 3018 3015 3013 3011 3008 3006 3003 3001 2999 2996 2993 2991 2989 2987 2985 2983 2981 2979 2978 2976 2975 2973 2971 2969 2968 2966 2965 2963 2961 2959 2958 2956 2954 2953 2951 2950 2948 2947 2945 2944 2943 2942 2941 2941 2939 2938 2938 2937 2936 2935 2934 2933 2933 2932 2932 2931 2930 2929 2928 2926 2924 2926 2926 2927 2932 2936
3054 3053 3052 3051 3049 3047 3045 3043 3040 3038 3035 3032 3030 3027 3024 3021 3019 3016 3014 3012 3009 3007 3004 3002 2999 2997 2994 2992 2990 2987 2985 2983 2981 2979 2977 2974 2972 2970 2968 2966 2965 2963 2962 2960 2958 2957 2955 2954 2952 2951 2949 2947 2945 2944 2942 2941 2940 2938 2937 2936 2935 2933 2932 2931 2930 2929 2929 2928 2927 2925 2925 2925 2925 2924 2923 2922 2922 2920 2918 2917 2917 2916 2917 2920 2923
3053 3052 3050 3048 3046 3044 3041 3038 3035 3032 3029 3026 3023 3020 3018 3015 3013 3011 3008 3006 3003 3001 2998 2996 2993 2991 2989 2986 2984 2982 2980 2978 2975 2973 2971 2968 2966 2964 2961 2959 2957 2955 2954 2952 2951 2949 2947 2945 2944 2942 2940 2939 2937 2936 2934 2933 2931 2930 2929 2928 2926 2925 2924 2922 2921 2920 2920 2919 2918 2917 2916 2916 2917 2916 2915 2915 2915 2913 2911 2911 2909 2907 2907 2907 2910
3051 3049 3047 3045 3042 3039 3035 3032 3029 3026 3023 3020 3016 3014 3012 3010 3007 3005 3002 3000 2997 2995 2992 2990 2988 2986 2984 2981 2979 2977 2974 2972 2970 2967 2965 2962 2960 2957 2955 2953 2950 2948 2946 2944 2943 2941 2939 2937 2936 2934 2932 2931 2929 2927 2926 2924 2922 2921 2920 2919 2917 2916 2915 2914 2912 2911 2911 2910 2909 2908 2907 2907 2908 2907 2906 2906 2907 2905 2904 2903 2902 2900 2898 2897 2897
3048 3046 3043 3040 3036 3033 3030 3027 3024 3021 3017 3014 3011 3009 3006 3004 3002 2999 2997 2994 2992 2990 2987 2985 2983 2981 2978 2976 2974 2971 2969 2966 2963 2961 2958 2956 2953 2951 2948 2946 2943 2941 2939 2937 2935 2933 2931 2929 2927 2926 2924 2922 2920 2919 2917 2915 2913 2912 2910 2909 2908 2907 2905 2905 2903 2902 2902 2900 2899 2899 2897 2897 2898 2897 2896 2897 2897 2897 2896 2895 2893 2893 2892 2888 2887
3045 3041 3038 3035 3032 3029 3026 3023 3020 3016 3013 3010 3007 3005 3002 2999 2996 2994 2991 2989 2987 2984 2982 2979 2977 2975 2972 2970 2968 2965 2962 2959 2957 2954 2952 2949 2947 2944 2942 2939 2937 2934 2932 2930 2928 2925 2923 2921 2919 2917 2915 2913 2911 2909 2907 2905 2904 2902 2901 2899 2898 2897 2895 2895 2894 2892 2892 2891 2889 2889 2888 2887 2888 2887 2887 2887 2887 2886 2886 2886 2885 2885 2884 2881 2879
3041 3038 3035 3031 3028 3025 3022 3019 3015 3012 3009 3006 3003 3000 2997 2995 2992 2989 2986 2983 2981 2978 2976 2973 2971 2968 2966 2963 2961 2958 2955 2953 2950 2948 2946 2943 2940 2938 2935 2933 2931 2928 2925 2923 2920 2918 2915 2913 2911 2908 2906 2904 2902 2900 2898 2896 2894 2893 2891 2889 2888 2886 2885 2885 2884 2882 2882 2880 2879 2879 2878 2877 2878 2877 2876 2877 2877 2876 2876 2876 2875 2875 2875 2873 2873
3038 3034 3031 3028 3024 3021 3017 3014 3010 3007 3004 3001 2999 2996 2993 2990 2987 2984 2981 2978 2976 2973 2970 2968 2965 2963 2960 2958 2955 2953 2950 2947 2944 2942 2939 2936 2933 2931 2928 2925 2923 2920 2918 2915 2912 2910 2907 2904 2902 2900 2897 2895 2893 2891 2888 2886 2885 2883 2881 2879 2878 2876 2874 2874 2874 2872 2871 2869 2868 2868 2868 2868 2867 2865 2865 2866 2866 2866 2865 2865 2865 2866 2866 2865 2865
3035 3031 3027 3024 3020 3016 3012 3009 3006 3003 3000 2997 2994 2991 2988 2984 2981 2979 2976 2973 2971 2969 2966 2964 2961 2958 2956 2953 2950 2947 2944 2941 2938 2935 2932 2929 2926 2923 2920 2918 2915 2912 2909 2907 2904 2901 2899 2896 2894 2891 2888 2886 2883 2881 2879 2876 2875 2873 2871 2869 2868 2866 2864 2863 2863 2862 2860 2858 2857 2857 2857 2858 2856 2854 2855 2855 2855 2855 2855 2855 2855 2855 2855 2856 2856
3031 3027 3023 3019 3016 3012 3009 3006 3002 2999 2996 2993 2990 2986 2983 2980 2977 2975 2972 2969 2967 2964 2962 2959 2956 2953 2950 2948 2945 2942 2939 2936 2933 2930 2926 2923 2920 2917 2914 2911 2908 2905 2902 2899 2896 2893 2890 2887 2885 2882 2879 2877 2874 2872 2869 2867 2865 2863 2861 2859 2858 2856 2854 2853 2852 2851 2850 2847 2846 2846 2846 2847 2846 2843 2844 2845 2844 2844 2844 2843 2844 2844 2845 2846 2847
3026 3023 3019 3016 3013 3009 3006 3002 2999 2995 2992 2989 2985 2982 2979 2976 2973 2971 2968 2965 2962 2959 2957 2954 2951 2948 2945 2942 2939 2936 2933 2929 2926 2923 2920 2917 2914 2910 2907 2904 2901 2898 2895 2892 2888 2885 2882 2879 2876 2873 2870 2867 2865 2862 2860 2857 2855 2853 2851 2849 2847 2845 2843 2842 2841 2840 2839 2837 2835 2835 2835 2836 2834 2832 2833 2834 2834 2834 2833 2832 2833 2834 2834 2836 2837
3023 3020 3016 3012 3009 3005 3001 2998 2994 2991 2987 2985 2981 2978 2975 2972 2969 2966 2963 2960 2957 2954 2951 2948 2945 2942 2939 2936 2933 2930 2926 2923 2920 2917 2913 2910 2907 2903 2900 2897 2894 2891 2887 2884 2880 2877 2874 2871 2867 2864 2861 2858 2855 2853 2850 2848 2845 2843 2840 2839 2837 2835 2833 2832 2830 2829 2828 2826 2824 2823 2824 2824 2823 2821 2822 2823 2823 2823 2823 2822 2822 2823 2824 2825 2827
3020 3015 3011 3007 3003 2999 2996 2992 2989 2985 2982 2979 2976 2972 2969 2966 2963 2960 2957 2954 2952 2949 2946 2943 2940 2937 2934 2931 2927 2924 2921 2917 2914 2910 2907 2903 2900 2896 2893 2889 2886 2883 2879 2876 2872 2869 2865 2862 2859 2855 2852 2850 2846 2844 2841 2838 2836 2833 2831 2829 2827 2825 2823 2821 2820 2818 2817 2815 2813 2812 2813 2812 2811 2810 2811 2812 2812 2812 2812 2811 2811 2813 2814 2815 2817
3013 3009 3005 3001 2997 2993 2989 2985 2982 2978 2975 2972 2969 2966 2963 2960 2957 2954 2952 2949 2946 2943 2940 2937 2934 2931 2928 2924 2921 2918 2914 2910 2907 2903 2900 2896 2893 2889 2886 2882 2878 2875 2871 2868 2864 2861 2857 2854 2851 2847 2844 2841 2838 2835 2832 2830 2827 2825 2822 2820 2818 2815 2813 2811 2810 2808 2807 2805 2803 2801 2801 2801 2799 2798 2799 2801 2801 2801 2801 2801 2801 2803 2804 2805 2806
3006 3002 2997 2994 2990 2987 2983 2979 2976 2972 2969 2967 2964 2961 2958 2955 2953 2950 2947 2944 2941 2938 2935 2932 2928 2925 2921 2918 2914 2911 2907 2903 2900 2896 2892 2889 2885 2881 2878 2874 2870 2867 2863 2860 2856 2853 2850 2846 2843 2839 2836 2833 2830 2828 2825 2822 2819 2816 2814 2811 2809 2806 2804 2802 2800 2799 2797 2795 2793 2791 2791 2790 2789 2788 2788 2790 2790 2790 2790 2790 2791 2793 2795 2795 2796
3000 2996 2992 2989 2985 2981 2978 2974 2971 2968 2965 2962 2960 2957 2954 2951 2948 2945 2942 2939 2936 2933 2929 2926 2922 2919 2915 2912 2908 2904 2900 2896 2893 2889 2885 2881 2878 2874 2870 2867 2863 2859 2856 2852 2848 2845 2842 2838 2835 2831 2828 2825 2822 2820 2817 2814 2811 2809 2806 2802 2800 2797 2795 2793 2791 2789 2787 2785 2783 2781 2781 2780 2779 2778 2778 2779 2779 2780 2779 2780 2782 2783 2785 2785 2786
2995 2991 2988 2984 2980 2977 2973 2970 2967 2963 2961 2958 2956 2953 2950 2947 2943 2940 2937 2933 2930 2927 2923 2919 2916 2912 2908 2905 2901 2897 2893 2890 2886 2882 2878 2874 2871 2867 2863 2859 2856 2852 2848 2845 2841 2837 2833 2830 2827 2824 2822 2819 2816 2813 2810 2806 2803 2800 2796 2793 2791 2788 2786 2783 2781 2780 2779 2777 2775 2772 2771 2771 2770 2769 2768 2768 2769 2770 2769 2770 2773 2774 2775 2776 2777
2990 2987 2983 2980 2976 2972 2969 2965 2962 2959 2956 2954 2951 2948 2945 2942 2938 2935 2931 2928 2924 2921 2917 2913 2909 2906 2902 2898 2894 2891 2887 2883 2879 2875 2871 2868 2864 2860 2856 2853 2849 2845 2841 2838 2834 2831 2827 2823 2821 2818 2815 2812 2809 2806 2803 2800 2796 2792 2788 2784 2781 2779 2776 2774 2771 2770 2768 2767 2766 2764 2762 2762 2761 2760 2760 2759 2760 2760 2760 2761 2763 2765 2765 2766 2768
2986 2982 2978 2975 2971 2968 2964 2961 2958 2955 2952 2949 2947 2943 2940 2937 2933 2930 2926 2923 2919 2915 2912 2908 2904 2900 2896 2892 2889 2885 2881 2877 2873 2869 2865 2862 2858 2854 2850 2846 2843 2839 2836 2832 2828 2825 2821 2817 2814 2811 2808 2805 2803 2800 2796 2794 2791 2788 2783 2779 2775 2772 2770 2767 2764 2761 2759 2758 2756 2754 2753 2752 2752 2751 2751 2751 2751 2752 2752 2753 2755 2756 2757 2758 2759
2981 2977 2974 2970 2967 2963 2959 2956 2953 2951 2948 2945 2942 2939 2935 2932 2928 2925 2921 2917 2914 2910 2906 2902 2898 2895 2891 2887 2883 2879 2875 2871 2867 2864 2860 2856 2852 2848 2844 2841 2837 2833 2830 2826 2823 2819 2815 2811 2807 2804 2802 2799 2796 2794 2790 2788 2786 2783 2780 2776 2771 2768 2764 2761 2759 2755 2753 2751 2748 2746 2744 2743 2743 2742 2742 2743 2743 2744 2745 2746 2747 2748 2750 2751 2752
2977 2973 2969 2966 2962 2959 2955 2952 2949 2946 2943 2940 2937 2934 2930 2927 2923 2919 2916 2912 2908 2904 2901 2897 2893 2889 2885 2881 2877 2873 2870 2866 2862 2858 2855 2850 2847 2843 2838 2834 2831 2827 2823 2820 2817 2813 2809 2805 2801 2798 2796 2793 2791 2788 2785 2782 2780 2778 2775 2772 2768 2764 2760 2757 2754 2751 2748 2745 2742 2739 2737 2735 2735 2734 2734 2735 2735 2736 2738 2739 2740 2741 2742 2744 2746
2971 2968 2965 2962 2958 2955 2952 2948 2945 2942 2939 2936 2933 2929 2926 2922 2918 2914 2910 2907 2903 2899 2895 2891 2887 2883 2879 2875 2872 2868 2864 2860 2857 2853 2849 2845 2840 2836 2832 2828 2824 2821 2817 2814 2811 2807 2804 2800 2796 2792 2790 2788 2785 2782 2779 2777 2775 2773 2770 2768 2765 2761 2757 2754 2750 2747 2743 2740 2736 2733 2730 2728 2727 2727 2727 2727 2728 2729 2731 2733 2734 2734 2735 2736 2738
2966 2963 2960 2957 2954 2951 2947 2944 2941 2938 2934 2931 2928 2925 2921 2918 2913 2909 2905 2901 2898 2894 2890 2886 2882 2878 2874 2870 2866 2863 2859 2855 2851 2847 2843 2839 2835 2830 2826 2822 2819 2815 2811 2808 2805 2801 2798 2795 2791 2787 2784 2782 2780 2777 2774 2772 2770 2768 2766 2764 2761 2757 2753 2749 2746 2742 2739 2735 2731 2727 2724 2721 2720 2719 2720 2721 2722 2724 2726 2727 2727 2728 2729 2730 2732
2961 2958 2955 2952 2949 2946 2942 2939 2936 2932 2929 2926 2923 2920 2916 2913 2908 2904 2900 2896 2893 2889 2885 2881 2877 2873 2869 2865 2861 2857 2854 2849 2846 2842 2838 2834 2830 2825 2821 2817 2814 2810 2807 2803 2800 2796 2792 2789 2786 2782 2779 2776 2775 2772 2769 2767 2765 2764 2763 2760 2757 2753 2748 2743 2740 2737 2734 2730 2726 2722 2718 2715 2713 2712 2713 2715 2717 2719 2720 2721 2722 2723 2724 2725 2726
2957 2954 2951 2948 2945 2941 2938 2934 2931 2928 2924 2921 2918 2915 2911 2908 2904 2899 2895 2892 2888 2884 2881 2877 2873 2869 2865 2860 2856 2852 2848 2844 2840 2837 2833 2829 2824 2820 2815 2811 2808 2805 2802 2798 2794 2791 2787 2784 2781 2777 2773 2771 2769 2767 2765 2762 2761 2760 2759 2756 2752 2748 2742 2738 2735 2732 2728 2725 2721 2717 2713 2710 2708 2707 2707 2710 2712 2715 2716 2716 2717 2718 2720 2721 2721
2953 2950 2947 2944 2941 2938 2934 2930 2927 2923 2920 2917 2914 2910 2907 2903 2899 2895 2891 2887 2884 2880 2876 2872 2868 2864 2860 2855 2851 2847 2843 2839 2835 2831 2827 2823 2819 2814 2810 2806 2802 2798 2796 2792 2788 2785 2782 2779 2775 2772 2769 2765 2764 2762 2760 2759 2758 2757 2755 2752 2748 2743 2738 2734 2730 2726 2723 2720 2717 2713 2709 2705 2702 2702 2704 2706 2708 2711 2712 2712 2713 2715 2716 2717 2718
2949 2946 2943 2940 2937 2934 2930 2926 2922 2919 2916 2912 2909 2906 2902 2898 2894 2890 2886 2882 2879 2875 2871 2867 2863 2859 2854 2850 2846 2842 2838 2834 2830 2826 2821 2817 2813 2809 2805 2801 2797 2793 2790 2787 2783 2779 2777 2775 2771 2768 2765 2761 2759 2757 2756 2755 2754 2753 2751 2748 2744 2739 2734 2729 2725 2721 2718 2715 2712 2709 2705 2701 2699 2699 2700 2702 2705 2708 2709 2709 2710 2712 2712 2713 2715
2945 2942 2939 2936 2933 2930 2926 2922 2918 2915 2911 2908 2905 2901 2897 2893 2889 2885 2881 2877 2874 2870 2866 2862 2858 2854 2850 2845 2841 2837 2833 2829 2825 2821 2817 2812 2808 2804 2800 2796 2792 2788 2785 2782 2778 2775 2772 2770 2767 2764 2761 2758 2755 2753 2752 2751 2750 2748 2747 2744 2740 2735 2730 2725 2720 2716 2713 2711 2708 2706 2702 2699 2696 2696 2697 2699 2701 2704 2706 2706 2707 2708 2709 2712 2713
2941 2938 2934 2931 2929 2925 2922 2918 2914 2910 2906 2903 2899 2896 2892 2888 2884 2880 2877 2873 2869 2866 2862 2858 2854 2850 2846 2842 2838 2833 2829 2825 2820 2816 2812 2808 2803 2799 2795 2791 2788 2784 2780 2777 2774 2770 2768 2766 2763 2760 2757 2754 2751 2749 2748 2747 2746 2744 2742 2740 2736 2732 2727 2722 2716 2712 2708 2706 2705 2702 2699 2697 2694 2693 2694 2696 2698 2701 2703 2703 2704 2705 2708 2710 2711
2937 2934 2930 2927 2924 2921 2917 2914 2909 2905 2902 2898 2894 2891 2887 2884 2880 2876 2872 2869 2865 2862 2858 2854 2850 2846 2842 2838 2834 2830 2825 2821 2817 2812 2808 2804 2800 2795 2791 2787 2783 2779 2776 2773 2769 2766 2763 2761 2759 2757 2754 2750 2748 2745 2744 2743 2742 2740 2738 2736 2733 2730 2725 2720 2714 2708 2704 2702 2701 2699 2697 2694 2692 2691 2692 2693 2695 2697 2699 2700 2701 2704 2706 2707 2707
2933 2929 2926 2922 2919 2916 2913 2909 2905 2901 2897 2893 2889 2886 2883 2879 2875 2871 2868 2865 2861 2858 2854 2850 2846 2842 2839 2834 2830 2826 2822 2817 2813 2809 2804 2800 2796 2792 2788 2784 2779 2775 2772 2769 2765 2762 2759 2757 2755 2753 2750 2747 2744 2742 2740 2739 2737 2736 2734 2732 2730 2727 2723 2718 2712 2707 2703 2700 2698 2696 2695 2692 2691 2690 2691 2692 2693 2694 2696 2697 2700 2702 2704 2705 2705
2928 2925 2921 2918 2914 2911 2908 2904 2900 2896 2892 2888 2884 2881 2878 2875 2871 2867 2863 2860 2857 2853 2850 2846 2842 2839 2835 2831 2827 2823 2818 2814 2809 2805 2801 2797 2792 2788 2785 2780 2776 2771 2768 2764 2761 2757 2754 2752 2750 2748 2746 2743 2740 2738 2736 2734 2732 2731 2730 2728 2726 2723 2720 2715 2711 2707 2703 2699 2696 2694 2693 2691 2690 2690 2690 2690 2691 2692 2693 2695 2697 2699 2701 2702 2703
2924 2921 2917 2913 2910 2906 2903 2900 2896 2892 2888 2884 2880 2876 2873 2870 2866 2862 2859 2856 2852 2849 2845 2842 2838 2834 2831 2827 2823 2819 2814 2810 2806 2802 2797 2793 2789 2784 2781 2777 2772 2768 2764 2760 2756 2753 2750 2747 2745 2743 2741 2739 2736 2734 2732 2730 2728 2727 2726 2724 2722 2720 2717 2713 2709 2706 2703 2699 2696 2694 2692 2690 2689 2689 2689 2689 2689 2689 2691 2693 2694 2696 2697 2699 2699
2919 2916 2913 2909 2906 2902 2898 2895 2892 2887 2883 2880 2876 2871 2868 2865 2862 2858 2854 2851 2848 2844 2841 2837 2834 2830 2826 2822 2819 2815 2811 2807 2803 2798 2794 2789 2785 2780 2776 2772 2768 2764 2760 2756 2752 2749 2746 2744 2741 2739 2736 2734 2732 2730 2728 2726 2724 2722 2721 2720 2719 2717 2714 2711 2708 2705 2703 2700 2697 2694 2691 2689 2688 2687 2687 2687 2687 2687 2688 2690 2691 2693 2694 2695 2696
2914 2911 2908 2904 2901 2897 2893 2890 2887 2883 2879 2875 2871 2866 2863 2860 2857 2853 2850 2846 2843 2840 2836 2833 2829 2826 2822 2818 2814 2810 2807 2803 2799 2795 2791 2787 2782 2777 2772 2768 2764 2760 2757 2753 2749 2745 2741 2739 2737 2734 2731 2729 2728 2726 2724 2722 2719 2717 2716 2716 2715 2713 2711 2708 2706 2704 2701 2699 2696 2694 2692 2689 2688 2686 2685 2685 2685 2685 2686 2687 2688 2689 2690 2692 2693
2909 2906 2902 2899 2896 2892 2888 2885 2882 2878 2874 2870 2866 2862 2858 2855 2852 2848 2845 2841 2838 2835 2832 2828 2825 2821 2818 2814 2810 2806 2802 2799 2795 2791 2788 2784 2779 2774 2770 2765 2761 2756 2753 2749 2745 2741 2736 2734 2732 2729 2726 2724 2723 2722 2721 2718 2715 2713 2711 2711 2710 2709 2707 2705 2703 2701 2699 2697 2695 2693 2692 2690 2687 2685 2684 2683 2683 2684 2684 2685 2686 2687 2688 2689 2690
2904 2901 2897 2894 2891 2887 2883 2880 2876 2873 2869 2866 2862 2857 2853 2850 2847 2843 2840 2837 2833 2830 2827 2824 2820 2817 2813 2810 2806 2802 2798 2794 2791 2787 2784 2780 2776 2771 2766 2762 2758 2754 2750 2745 2741 2737 2733 2730 2728 2726 2722 2719 2718 2718 2717 2714 2712 2710 2707 2706 2706 2704 2703 2702 2701 2699 2698 2697 2695 2693 2692 2690 2688 2686 2684 2683 2682 2682 2682 2683 2684 2685 2686 2687 2688
2900 2896 2893 2890 2886 2882 2878 2875 2871 2868 2864 2861 2857 2853 2848 2845 2842 2838 2835 2832 2828 2825 2822 2819 2816 2812 2809 2805 2802 2798 2794 2790 2787 2783 2780 2777 2775 2770 2765 2759 2755 2752 2749 2745 2740 2736 2732 2728 2726 2725 2721 2717 2715 2714 2714 2712 2710 2707 2705 2704 2703 2701 2699 2699 2698 2697 2696 2695 2694 2693 2691 2690 2688 2686 2685 2683 2682 2682 2681 2681 2682 2682 2683 2684 2685
2895 2891 2888 2885 2882 2878 2874 2870 2866 2863 2860 2856 2853 2848 2844 2841 2837 2834 2830 2827 2823 2820 2817 2814 2811 2807 2804 2800 2797 2793 2790 2786 2782 2779 2775 2772 2770 2769 2766 2760 2754 2750 2747 2744 2740 2737 2733 2729 2725 2723 2720 2717 2715 2713 2712 2710 2707 2704 2702 2701 2700 2698 2696 2696 2695 2695 2694 2693 2693 2692 2691 2689 2688 2687 2685 2684 2683 2682 2681 2681 2680 2680 2681 2681 2683